Ouarzazate, Morocco

7:47 PM WET on November 24, 2017 (GMT +0000)
Ouarzazate

Weather History for GMMZ - October, 2012

Change the Weather History Date:

Tuesday, October 23, 2012

  Actual Average Record
Temperature  
Mean Temperature 70 °F -  
Max Temperature 81 °F 72 °F - ()
Min Temperature 58 °F 46 °F - ()
Cooling Degree Days 4    
Growing Degree Days 20 (Base 50)    
Moisture  
Dew Point 37 °F    
Average Humidity 27    
Maximum Humidity 42    
Minimum Humidity 11    
Precipitation  
Precipitation 0.00 in 0.02 in - ()
Sea Level Pressure  
Sea Level Pressure 30.19 in    
Wind  
Wind Speed 3 mph ()    
Max Wind Speed 14 mph    
Max Gust Speed -    
Visibility 8.0 miles    
Events      
T = Trace of Precipitation, MM = Missing Value Source: Averaged Metar Reports

Daily Weather History Graph

Daily Weather History Graph

Search for Another Location

Airport or City:

Trip Planner

Search our weather history database for the weather conditions in past years. The results will help you decide how hot, cold, wet, or windy it might be!

Date:

Astronomy

Oct. 23, 2012 Rise Set
Actual Time 6:36 AM WET 5:47 PM WET
Civil Twilight 6:11 AM WET 6:11 PM WET
Nautical Twilight 5:43 AM WET 6:40 PM WET
Astronomical Twilight 5:15 AM WET 7:08 PM WET
Moon 2:01 PM WET (10/23) 12:37 AM WET (10/23)
Length of Visible Light 12h 00m
Length of Day
11h 11m
Waxing Gibbous, 65% of the Moon is Illuminated
Oct 23
Waxing Gibbous
Oct 29
Full
Nov 7
Last Quarter
Nov 13
New
Nov 20
First Quarter

Hourly Weather History & Observations

Time (WET) Temp. Dew Point Humidity Pressure Visibility Wind Dir Wind Speed Gust Speed Precip Events Conditions
12:00 AM 69 °F 27 °F 11%  in 12 mi South 6.9 mph - -   Clear
12:00 AM 68.0 °F 26.6 °F 21% 30.21 in - South 6.9 mph - N/A   Clear
3:00 AM 59 °F 33 °F 25%  in 12 mi WNW 1.2 mph - -  
4:00 AM 60.8 °F 33.8 °F 36% 30.18 in - Calm Calm - N/A   Clear
5:00 AM 60.8 °F 37.4 °F 42% 30.18 in - Calm Calm - N/A   Clear
6:00 AM 60 °F 34 °F 26%  in 12 mi West 1.2 mph - -  
6:00 AM 59.0 °F 33.8 °F 39% 30.21 in - Variable 1.2 mph - N/A   Clear
7:00 AM 60.8 °F 35.6 °F 39% 30.24 in - North - - N/A   Clear
8:00 AM 60.8 °F 37.4 °F 42% 30.24 in - Variable 1.2 mph - N/A   Clear
9:00 AM 66.2 °F 33.8 °F 30% 30.27 in 6.2 mi Calm Calm - N/A   Scattered Clouds
10:00 AM 66.2 °F 32.0 °F 28% 30.27 in 6.2 mi NW 1.2 mph - N/A   Partly Cloudy
11:00 AM 71.6 °F 32.0 °F 23% 30.27 in 6.2 mi Calm Calm - N/A   Scattered Clouds
12:00 PM 73 °F 35 °F 15%  in 12 mi SSE 1.2 mph - -   Scattered Clouds
12:00 PM 73.4 °F 37.4 °F 27% 30.24 in 6.2 mi SSE 1.2 mph - N/A   Scattered Clouds
1:00 PM 77.0 °F 39.2 °F 26% 30.21 in 6.2 mi WNW 2.3 mph - N/A   Partly Cloudy
2:00 PM 77.0 °F 41.0 °F 28% 30.15 in 6.2 mi NNW 3.5 mph - N/A   Partly Cloudy
3:00 PM 80 °F 40 °F 14%  in 12 mi WSW 1.2 mph - -   Scattered Clouds
3:00 PM 78.8 °F 39.2 °F 24% 30.15 in 6.2 mi WSW 1.2 mph - N/A   Partly Cloudy
4:00 PM 80.6 °F 41.0 °F 24% 30.12 in 6.2 mi East 1.2 mph - N/A   Scattered Clouds
5:00 PM 80.6 °F 42.8 °F 26% 30.12 in 6.2 mi SSE 4.6 mph - N/A   Scattered Clouds
6:00 PM 80 °F 43 °F 17%  in 12 mi North 3.5 mph - -   Partly Cloudy
6:00 PM 78.8 °F 42.8 °F 28% 30.12 in 6.2 mi North 3.5 mph - N/A   Scattered Clouds
7:00 PM 77.0 °F 41.0 °F 28% 30.15 in 6.2 mi South 13.8 mph - N/A   Scattered Clouds
8:00 PM 75.2 °F 42.8 °F 31% 30.18 in 6.2 mi South 8.1 mph - N/A   Scattered Clouds
9:00 PM 75 °F 40 °F 18%  in 12 mi South 4.6 mph - -   Partly Cloudy
9:00 PM 75.2 °F 42.8 °F 31% 3.01 in 6.2 mi South 3.5 mph - N/A   Scattered Clouds
10:00 PM 73.4 °F 39.2 °F 29% 30.18 in 6.2 mi South 2.3 mph - N/A   Scattered Clouds
11:00 PM 69.8 °F 42.8 °F 38% 30.18 in 6.2 mi NNW 1.2 mph - N/A   Partly Cloudy